This demonstration page uses our WeatherBlox Daily Observations layout. Learn more.

40.92945, -100.16068

Hourly Observations for June 16, 2018

Temp ( °F °C ) Dew Point ( °F °C ) Humidity (%) Winds ( mph kmh ) Pressure ( in mb ) Visibility ( mi km ) Precip ( " mm )
12:15 am 00:15 Clear with Thunderstorms 80 26.8 62 16.9 55 55 SE 10 17 29.59 1002 10 16.0934 0 0
12:35 am 00:35 Clear with Nearby Thunderstorms 79 25.9 63 17.1 58 58 SE 10 17 29.59 1002 10 16.0934 0 0
12:55 am 00:55 Clear 78 25.7 63 17 59 59 SE 14 22 29.56 1001 10 16.0934 0 0
1:15 am 01:15 Clear 80 26.5 62 16.6 55 55 ESE 15 24 29.56 1001 10 16.0934 0 0
1:35 am 01:35 Clear 80 26.6 61 16.3 53 53 SE 14 22 29.56 1001 10 16.0934 0 0
1:55 am 01:55 Clear 79 25.9 62 16.7 57 57 E 13 20 29.56 1001 10 16.0934 0 0
2:15 am 02:15 Clear 78 25.8 62 16.6 57 57 ESE 10 17 29.56 1001 10 16.0934 0 0
2:35 am 02:35 Clear 79 26.2 59 15 50 50 ESE 8 13 29.56 1001 10 16.0934 0 0
2:55 am 02:55 Clear 77 24.8 61 16 58 58 SE 9 15 29.56 1001 10 16.0934 0 0
3:15 am 03:15 Clear 80 26.4 58 14.3 47 47 SSE 9 15 29.56 1001 10 16.0934 0 0
3:35 am 03:35 Clear 80 26.6 61 15.9 52 52 S 14 22 29.56 1001 10 16.0934 0 0
3:55 am 03:55 Clear 80 26.8 60 15.8 51 51 S 14 22 29.56 1001 10 16.0934 0 0
4:15 am 04:15 Clear 80 26.5 61 16 53 53 S 13 20 29.56 1001 10 16.0934 0 0
4:35 am 04:35 Clear 79 26.1 61 16.1 54 54 S 13 20 29.56 1001 10 16.0934 0 0
4:55 am 04:55 Clear 79 26.1 61 16.1 54 54 S 18 30 29.56 1001 10 16.0934 0 0
5:15 am 05:15 Clear 78 25.6 61 16.2 56 56 S 13 20 29.56 1001 10 16.0934 0 0
5:35 am 05:35 Clear 77 25 61 16.3 59 59 S 14 22 29.56 1001 10 16.0934 0 0
5:55 am 05:55 Clear 76 24.6 61 16.1 59 59 S 14 22 29.56 1001 10 16.0934 0 0
6:15 am 06:15 Sunny 75 24.1 61 16.2 61 61 SE 9 15 29.62 1003 10 16.0934 0 0
6:35 am 06:35 Sunny 74 23.4 61 16.2 64 64 NW 8 13 29.65 1004 10 16.0934 0 0
6:55 am 06:55 Sunny 71 21.4 62 16.8 75 75 N 9 15 29.65 1004 10 16.0934 0 0
7:15 am 07:15 Sunny 73 22.9 62 16.9 69 69 SSE 3 6 29.65 1004 10 16.0934 0 0
7:35 am 07:35 Sunny 76 24.3 63 17.3 65 65 Calm 29.65 1004 10 16.0934 0 0
7:55 am 07:55 Sunny 77 24.8 63 17.1 62 62 SSE 8 13 29.62 1003 10 16.0934 0 0
8:15 am 08:15 Sunny 77 25 63 17 61 61 SSE 9 15 29.59 1002 10 16.0934 0 0
8:35 am 08:35 Sunny 78 25.5 63 17.4 61 61 S 12 19 29.59 1002 10 16.0934 0 0
8:55 am 08:55 Sunny 78 25.7 63 17.3 60 60 S 15 24 29.59 1002 10 16.0934 0 0
9:15 am 09:15 Sunny 80 26.7 63 17.4 57 57 S 17 28 29.59 1002 10 16.0934 0 0
9:35 am 09:35 Sunny 82 27.6 64 17.6 54 54 S 12 19 29.59 1002 10 16.0934 0 0
9:55 am 09:55 Sunny 83 28.3 64 17.5 52 52 S 17 28 29.56 1001 10 16.0934 0 0
10:15 am 10:15 Sunny 84 29 63 17.4 50 50 S 18 30 29.56 1001 10 16.0934 0 0
10:35 am 10:35 Sunny 85 29.5 64 17.5 48 48 S 17 28 29.56 1001 10 16.0934 0 0
10:55 am 10:55 Sunny 87 30.3 65 18.1 48 48 S 14 22 29.56 1001 10 16.0934 0 0
11:15 am 11:15 Sunny 88 31 63 17.4 44 44 S 20 31 29.56 1001 10 16.0934 0 0
11:35 am 11:35 Sunny 89 31.8 64 17.5 42 42 S 21 33 29.53 1000 10 16.0934 0 0
11:55 am 11:55 Sunny 90 32.1 62 16.9 40 40 S 23 37 29.53 1000 10 16.0934 0 0
12:15 pm 12:15 Sunny 91 32.6 64 17.9 42 42 S 20 31 29.53 1000 10 16.0934 0 0
12:35 pm 12:35 Sunny 92 33.3 63 17.2 38 38 S 23 37 29.5 999 10 16.0934 0 0
12:55 pm 12:55 Sunny 94 34.3 63 17.4 37 37 S 24 39 29.5 999 10 16.0934 0 0
1:15 pm 13:15 Sunny 95 35 63 17.1 34 34 S 25 41 29.47 998 10 16.0934 0 0
1:35 pm 13:35 Sunny 96 35.5 62 16.7 33 33 S 25 41 29.47 998 10 16.0934 0 0
1:55 pm 13:55 Sunny 95 35.1 61 16 32 32 S 28 44 29.47 998 10 16.0934 0 0
2:15 pm 14:15 Sunny 94 34.4 59 15.1 31 31 S 22 35 29.5 999 10 16.0934 0 0
2:35 pm 14:35 Sunny N/A N/A N/A S 23 37 N/A 10 16.0934 0 0
2:55 pm 14:55 Sunny 92 33.2 58 14.5 32 32 S 23 37 29.5 999 10 16.0934 0 0
3:15 pm 15:15 Sunny N/A N/A N/A S 23 37 N/A 10 16.0934 0 0
3:35 pm 15:35 Sunny 95 34.9 60 15.6 31 31 S 31 50 29.5 999 10 16.0934 0 0
3:55 pm 15:55 Sunny 94 34.5 58 14.3 30 30 S 33 54 29.5 999 10 16.0934 0 0
4:15 pm 16:15 Sunny 91 32.7 58 14.6 33 33 S 23 37 29.5 999 10 16.0934 0 0
4:35 pm 16:35 Sunny 91 33 60 15.7 35 35 S 20 31 29.5 999 10 16.0934 0 0
4:55 pm 16:55 Sunny N/A N/A N/A S 18 30 N/A 10 16.0934 0 0
5:15 pm 17:15 Sunny 91 32.7 61 16 37 37 S 25 41 29.5 999 10 16.0934 0 0
5:35 pm 17:35 Sunny N/A N/A N/A SSE 24 39 N/A 10 16.0934 0 0
5:55 pm 17:55 Sunny N/A N/A N/A S 25 41 N/A 10 16.0934 0 0
6:15 pm 18:15 Sunny 90 32.3 59 15 35 35 SSE 26 43 29.5 999 10 16.0934 0 0
6:35 pm 18:35 Sunny N/A N/A N/A S 24 39 N/A 10 16.0934 0 0
6:55 pm 18:55 Sunny N/A N/A N/A SSE 21 33 N/A 10 16.0934 0 0
7:15 pm 19:15 Sunny N/A N/A N/A S 22 35 N/A 10 16.0934 0 0
7:35 pm 19:35 Sunny N/A N/A N/A S 22 35 N/A 10 16.0934 0 0
7:55 pm 19:55 Sunny 88 31 62 16.6 42 42 SSE 18 30 29.53 1000 10 16.0934 0 0
8:15 pm 20:15 Sunny N/A N/A N/A SSE 17 28 N/A 10 16.0934 0 0
8:35 pm 20:35 Sunny N/A N/A N/A SSE 15 24 N/A 10 16.0934 0 0
8:55 pm 20:55 Sunny N/A N/A N/A SSE 15 24 N/A 10 16.0934 0 0
9:15 pm 21:15 Clear 84 29.1 62 16.8 47 47 SSE 16 26 29.53 1000 10 16.0934 0 0
9:35 pm 21:35 Clear 83 28.6 63 17 49 49 SSE 14 22 29.56 1001 10 16.0934 0 0
9:55 pm 21:55 Clear 83 28.2 63 17.1 51 51 SSE 14 22 29.56 1001 10 16.0934 0 0
10:15 pm 22:15 Clear N/A N/A N/A SSE 13 20 N/A 10 16.0934 0 0
10:35 pm 22:35 Clear 82 28 62 16.8 51 51 SSE 14 22 29.62 1003 10 16.0934 0 0
10:55 pm 22:55 Clear N/A N/A N/A SSE 15 24 N/A 10 16.0934 0 0
11:15 pm 23:15 Clear N/A N/A N/A SSE 16 26 N/A 10 16.0934 0 0
11:35 pm 23:35 Clear 82 27.8 62 16.7 51 51 SSE 15 24 29.62 1003 10 16.0934 0 0
11:55 pm 23:55 Clear N/A N/A N/A SSE 15 24 N/A 10 16.0934 0 0

Powered by AerisWeather